COSMOS 1780 (GLONASS)

Satellite information

Favourite Embed

Satellite Type and Status

PAYLOADIN ORBIT

Key statistics

Satellite COSMOS 1780 (GLONASS) at a glance.

Uptime

14285

Days in orbit

Revolutions

≈ 2.1

Per day

Orbit

MEO

Medium Earth Orbit

Inclination

64.7

Latest

Satellite identification and parameters

Extended collection of information and parameters for COSMOS 1780 (GLONASS).

Object identification

Identified? True

Debris? False

Object name: COSMOS 1780 (GLONASS)

International designator: 1986-071C

Object number (NORAD): 16963

Object ID (CCSDS): 16963

Country: COMMONWEALTH OF INDEPENDENT STATES (CIS)

Current information (Y/N): Y

RCS size: MEDIUM

Orbital parameters

Period: 675.715 minutes

Inclination: 64.7471 deg

SMA: 25507.568 km

Apoapsis: 19135.243 km

Periapsis: 19123.622 km

RAAN: 80.4817 deg

Eccentricy: 0.0002278

Argument of periapsis: 346.3734 deg

Mean anomaly: 11.3457 deg

Mean motion: 2.13107726 rev/day

Mean motion (dot): 0.00000038 rev/day2

B* drag term: 0.0 1/REarth

Two-line elements (TLE)

Creation date: Oct. 17, 2025, 6:56 a.m.

Reference frame: TEME

Reference center: EARTH

Epoch: Oct. 16, 2025, 6:19 a.m. UTC

TLE line 0: 0 COSMOS 1780 (GLONASS)

TLE line 1: 1 16963U 86071C 25289.26356118 .00000038 00000-0 00000+0 0 9995

TLE line 2: 2 16963 64.7471 80.4817 0002278 346.3734 11.3457 2.13107726304123

Live tracking on map

Real-time ground track for satellite COSMOS 1780 (GLONASS).

In-orbit conjunctions

A list of the most updated potential collisions computed for object COSMOS 1780 (GLONASS).

Target Orbit TCA Probability of collision Miss distance Type
COSMOS 1885 (GLONASS) MEO 2024-09-19 06:51:44 TBA 2061.0 (m) PAYLOAD
COSMOS 1885 (GLONASS) MEO 2024-09-18 19:36:01 TBA 2473.0 (m) PAYLOAD
COSMOS 1885 (GLONASS) MEO 2024-09-01 05:16:41 TBA 3046.0 (m) PAYLOAD
COSMOS 1885 (GLONASS) MEO 2024-08-31 18:00:57 TBA 2757.0 (m) PAYLOAD
COSMOS 1885 (GLONASS) MEO 2024-08-31 06:45:14 TBA 1969.0 (m) PAYLOAD

Associated space launch

GLONASS navigation satellites

COSMOS 1780 (GLONASS) was lifted into orbit during the mission ‘Proton | Uragan 14 to 16’, on board a Proton space rocket.

The launch took place on Sept. 16, 1986, 11:38 a.m. from 200/40.

For more information about the launch, click the button.

Launch to space Proton | Uragan 14 to 16
Proton | Uragan 14 to 16

Agency: N/A

Status: Launch Successful

Launch date: Sept. 16, 1986, 11:38 a.m. UTC

Rocket: Proton

Launch pad: 200/40

Location: Baikonur Cosmodrome, Republic of Kazakhstan

...

Latest news about this satellite

There are no fresh news available about this satellite. Check back as we update our databases every day.


Newsletter sign-up

Weekly statistics, charts and insights to help you stay on top of the space industry.